Location: Miami, Florida
(25.6830°N, 80.1700°W)
Time: 20:54:56
(UTC-04:00)

Tiangong 1 - Pass Details

Date: 15 November 2017
Orbit: 285 x 309 km, 42.8° (Epoch: 18 November)

Event Time Altitude Azimuth Distance (km) Brightness Sun altitude
Exits shadow 06:12:47 29° 48° (NE) 559 2.2 -19.4°
Drops below altitude 10° 06:14:49 10° 99° (E) 1,134 4.7 -19.0°
Sets 06:16:52 0° 111° (ESE) 1,955 6.3 -18.5°
